Regional Weather Roundup
Issued by NWS

Home | Current Version | Previous Version | Graphics & Text | Print | Product List | Glossary On
Versions: 1 2 3 4 5 6 7 8 9 10 11 12 13 14 15 16 17 18 19 20 21 22 23 24 25 26 27 28 29 30 31 32 33 34 35 36 37 38 39 40 41 42 43 44 45 46 47 48 49 50
000
ASUS45 KBOU 172007
RWRCO

WEATHER ROUNDUP FOR COLORADO
NATIONAL WEATHER SERVICE DENVER/BOULDER CO
100 PM MST TUE JAN 17 2017

NOTE: "FAIR" INDICATES FEW OR NO CLOUDS BELOW 12000 FEET WITH NO
SIGNIFICANT WEATHER AND/OR OBSTRUCTIONS TO VISIBILITY.

COZ001>005-013-030-031-172100-
...NORTHWEST COLORADO...

CITY           SKY/WX    TMP DP  RH WIND       PRES   REMARKS
CRAIG          CLOUDY    18  13  80 W5        30.21F HAZE    WCI  11
HAYDEN         FAIR      19  12  73 CALM      30.18S
MEEKER         FAIR      27  20  75 CALM      30.18F
MOUNT WERNER   NOT AVBL
STEAMBOAT SPGS FAIR      25  15  65 CALM      30.16F
WALDEN           N/A    N/A N/A N/A CALM      30.16S VSB<1/4
$$

COZ006>008-011-172100-
...WEST CENTRAL VALLEYS...

CITY           SKY/WX    TMP DP  RH WIND       PRES   REMARKS
GRAND JUNCTION FAIR      42  26  53 SE5       30.17F
MONTROSE       PTSUNNY   39  28  64 E3        30.18F
EAGLE          MOSUNNY   34  21  60 CALM      30.18F
RIFLE          FAIR      36  22  56 CALM      30.17F
DELTA          CLOUDY    43  30  59 NE3       30.18F
NUCLA          CLOUDY    41  28  60 N5        30.19F
$$

COZ017>023-064>068-172100-
...SOUTHWEST COLORADO...

CITY           SKY/WX    TMP DP  RH WIND       PRES   REMARKS
DURANGO        PTSUNNY   40  33  76 E5        30.13F
CORTEZ         FAIR      42  33  70 CALM      30.14F
PAGOSA SPRINGS CLOUDY    37  30  75 CALM      30.14F
TELLURIDE      CLOUDY    31  26  81 W6        30.16S WCI  26
WOLF CREEK PAS   N/A     21  21 100 S3        30.19F
$$

COZ009-010-012-014-032>034-037-058>063-172100-
...CENTRAL COLORADO...

CITY           SKY/WX    TMP DP  RH WIND       PRES   REMARKS
ASPEN          FAIR      33  21  61 N6        30.12F WCI  28
BUENA VISTA    FAIR      31  23  70 CALM      30.09S
COPPER MTN     FAIR      28   9  43 CALM      30.15S
BERTHOUD PASS  NOT AVBL
COTTONWOOD PAS FAIR      34  23  64 SE7       30.10S WCI  28
GUNNISON       CLOUDY    27  24  89 SE3       30.16F
KREMMLING      CLOUDY    34  23  64 CALM      30.17F
LEADVILLE      FAIR      34   7  32 NW9       30.08F WCI  27
MONARCH PASS   CLOUDY    19  18  93 MISG      30.23F
SALIDA         FAIR      41  28  59 CALM      30.15F
SUNLIGHT       FAIR      27  23  86 SW6       30.18S FOG     WCI  20
WILKERSON PASS NOT AVBL
$$

COZ069>075-172100-
...SAN LUIS VALLEY/SANGRE DE CRISTO MOUNTAINS...

CITY           SKY/WX    TMP DP  RH WIND       PRES   REMARKS
ALAMOSA        CLOUDY    32  28  85 CALM      30.12F
LA VETA PASS   PTSUNNY   30  27  86 NE25G33   30.09F WCI  16
SAGUACHE       CLOUDY    32  30  93 S3        30.14F
$$

COZ035-036-038>040-172100-
...NORTHERN COLORADO FRONT RANGE...

CITY           SKY/WX    TMP DP  RH WIND       PRES   REMARKS
DENVER INTL AP FAIR      42  26  53 SW5       29.99F
DMNS CITY PARK   N/A     47  22  37 N7        29.98F
AURORA         MOSUNNY   43  26  50 SW3       29.99F
FRONT RANGE AP MOSUNNY   45  28  53 SW6       30.00F
ERIE MUNI ARPT FAIR      40  26  56 CALM      30.00F
BOULDER MUN AP FAIR      39  25  56 CALM      29.99F
CENTENNIAL     FAIR      42  27  55 E3        29.99F
BROOMFIELD     MOSUNNY   39  27  60 CALM      30.00F
FORT COLLINS   FAIR      41  27  56 S5        30.01S
LONGMONT       FAIR      43  26  52 CALM      30.02F
$$

COZ041-046-047-076>085-087-088-172100-
...PIKES PEAK/PALMER DIVIDE AND SOUTHERN FOOTHILLS...

CITY           SKY/WX    TMP DP  RH WIND       PRES   REMARKS
COLO. SPRINGS  FAIR      36  28  73 CALM      30.04F
A. F. ACADEMY  FAIR      42  27  55 S5        30.00F
SCHRIEVER AFB  NOT AVBL
ELLICOTT       FAIR     N/A N/A N/A SW6       30.02F
FALCON         FAIR      39  29  67 S5        30.03F
FORT CARSON    NOT AVBL
LIMON          FAIR      41  33  73 S12       30.02F
MONUMENT HILL  FAIR      43  21  42 CALM      30.02F
TRINIDAD       FAIR      33  28  81 S6        30.04F WCI  28
$$

COZ042>045-048>051-090-091-172100-
...NORTHEAST COLORADO...

CITY           SKY/WX    TMP DP  RH WIND       PRES   REMARKS
GREELEY ARPT   FAIR      39  28  64 VRB3      30.02F
AKRON          FAIR      38  29  70 W10       30.00F
BURLINGTON     FAIR      41  33  73 SW13      30.04F
WRAY           NOT AVBL
STERLING       FAIR      37  30  75 S7        30.00F
HOLYOKE        FAIR      45  27  49 SW7       30.03F
FORT MORGAN    FAIR      39  26  59 SW6       30.02F
$$

COZ086-089-092>099-172100-
...SOUTHEAST COLORADO...

CITY           SKY/WX    TMP DP  RH WIND       PRES   REMARKS
PUEBLO         PTSUNNY   38  33  82 CALM      30.04F
LA JUNTA       FAIR      34  27  75 NW6       30.06F WCI  29
LAMAR          FAIR      35  31  85 CALM      30.06F
SPRINGFIELD      N/A     42  34  73 S14       30.06F
$$



USA.gov is the U.S. government's official web portal to all federal, state and local government web resources and services.